Flag for Switzerland Weather past 2 weeks in Meyrin, Geneva, Switzerland

Now
61 °F

Partly sunny.


Feels Like: 61 °F
Forecast: 44 / 69 °F
Wind: 3 mph from West

Location: Geneva Cointrin Airport

Current Time: Aug 22, 2014 at 10:38:37 AM

Latest Report: Aug 22, 2014 at 10:20 AM


Visibility: N/A

Pressure: 30.04 "Hg

Humidity: 68%

Dew point: 50 °F

Location of MeyrinLocation

Historic Weather in Meyrin — Graph

°F

Meyrin temperature yesterday

Maximum temperature yesterday: 72 °F (at 5:20 PM)
Minimum temperature yesterday: 50 °F (at 6:20 AM)
Average temperature yesterday: 61 °F

Past Weeks' High & Low Weather Summary

 TemperatureHumidityPressure
High84 °F (Aug 8, 3:50 PM)100% (Aug 7, 11:50 PM)30.21 "Hg (Aug 7, 11:50 PM)
Low46 °F (Aug 17, 4:50 AM)34% (Aug 18, 3:50 PM)29.74 "Hg (Aug 13, 6:50 AM)
Average64 °F73%30.00 "Hg
* Reported Aug 7 9:20 AM — Aug 22 9:20 AM, Meyrin, Weather by CustomWeather, © 2014

Note: Actual official high and low records may vary slightly from our data, if they occured in-between our weather recording intervals... More about our weather records

Advertising

Meyrin weather history for previous 24 hours

 ConditionsComfort  
Time TempWeatherWind HumidityBarometerVisibility
9:20 AM
Aug 22
59 °FPartly sunny.1 mph72%30.04 "HgN/A
8:50 AM57 °FPartly sunny.2 mph77%30.04 "HgN/A
8:20 AM55 °FPartly sunny.1 mph82%30.04 "HgN/A
7:50 AM54 °FPartly sunny.2 mph88%30.04 "HgN/A
7:20 AM52 °FPassing clouds.1 mph88%30.04 "HgN/A
6:50 AM52 °FPassing clouds.1 mph88%30.04 "HgN/A
6:20 AM52 °FPassing clouds.2 mph88%30.04 "HgN/A
5:50 AM52 °FPassing clouds.1 mph88%30.01 "HgN/A
5:20 AM54 °FPassing clouds.2 mph82%30.04 "HgN/A
4:20 AM52 °FPassing clouds.1 mph88%30.04 "HgN/A
3:50 AM52 °FPassing clouds.No wind88%30.04 "HgN/A
2:50 AM50 °FPassing clouds.3 mph88%30.04 "HgN/A
2:20 AM52 °FPassing clouds.No wind88%30.07 "HgN/A
1:50 AM52 °FPassing clouds.2 mph82%30.07 "HgN/A
1:20 AM52 °FClear.No wind88%30.07 "Hg10 mi
12:50 AM52 °FClear.No wind94%30.07 "Hg10 mi
12:20 AM54 °FClear.1 mph88%30.07 "Hg10 mi
11:50 PM
Aug 21
55 °FPassing clouds.No wind77%30.04 "HgN/A
11:20 PM55 °FPassing clouds.2 mph77%30.04 "HgN/A
10:50 PM57 °FPassing clouds.1 mph72%30.04 "HgN/A
10:20 PM59 °FPassing clouds.3 mph68%30.04 "HgN/A
9:50 PM59 °FPassing clouds.3 mph68%30.04 "HgN/A
9:20 PM59 °FPassing clouds.No wind68%30.04 "HgN/A
8:50 PM63 °FPassing clouds.1 mph59%30.04 "HgN/A
8:20 PM64 °FPassing clouds.2 mph56%30.01 "HgN/A
7:50 PM66 °FPassing clouds.6 mph49%30.01 "HgN/A
7:20 PM70 °FPassing clouds.3 mph43%30.01 "HgN/A
6:50 PM72 °FPassing clouds.2 mph41%30.01 "HgN/A
6:20 PM72 °FPassing clouds.3 mph44%30.01 "HgN/A
5:50 PM70 °FPassing clouds.3 mph43%30.01 "HgN/A
5:20 PM72 °FScattered clouds.3 mph41%30.01 "HgN/A
4:50 PM68 °FScattered clouds.6 mph43%30.01 "HgN/A
4:20 PM70 °FScattered clouds.6 mph40%30.01 "HgN/A
3:50 PM68 °FScattered clouds.7 mph46%30.04 "HgN/A
3:20 PM70 °FPassing clouds.2 mph43%30.04 "HgN/A
2:50 PM70 °FPassing clouds.5 mph40%30.04 "HgN/A
2:20 PM70 °FPassing clouds.5 mph43%30.04 "HgN/A
1:50 PM68 °FPassing clouds.6 mph43%30.04 "HgN/A
1:20 PM70 °FPassing clouds.5 mph40%30.07 "HgN/A
12:50 PM68 °FPassing clouds.5 mph40%30.07 "HgN/A
12:20 PM66 °FPassing clouds.6 mph43%30.07 "HgN/A
11:50 AM66 °FPassing clouds.5 mph56%30.07 "HgN/A
11:20 AM64 °FPassing clouds.6 mph60%30.07 "HgN/A
10:50 AM63 °FPassing clouds.6 mph64%30.07 "HgN/A
10:20 AM63 °FPassing clouds.5 mph68%30.07 "HgN/A
Weather by CustomWeather, © 2014

See weather overviewHow to use our weather pages